QPF
0.00 0.00 0.00 0.00 0.00 0.00 0.00 0.00 0.00 0.00 0.00 0.00 0.00 0.00 0.00 0.00 0.00 0.00 0.00 0.00 0.00 0.00 0.00 0.00 0.00 0.00 0.00 0.00 0.00 0.00 0.00 0.00 0.00 0.00 0.00 0.00 0.00 0.00 0.00 0.00 0.00 0.00 0.00 0.00 0.00
0.00 0.00 0.00 0.00 0.00 0.00 0.00 0.00 0.00 0.00 0.00 0.00 0.00 0.00 0.00 0.00 0.00 0.00 0.00 0.00 0.00 0.00 0.00 0.00 0.00 0.00 0.00 0.00 0.00 0.00 0.00 0.00 0.00 0.00 0.00 0.00 0.00 0.00 0.00 0.00 0.00 0.00 0.00 0.00 0.00
0.00 0.00 0.00 0.00 0.00 0.00 0.00 0.00 0.00 0.00 0.00 0.00 0.00 0.00 0.00 0.00 0.00 0.00 0.00 0.00 0.00 0.00 0.00 0.00 0.00 0.00 0.00 0.00 0.00 0.00 0.00 0.00 0.00 0.00 0.00 0.00 0.00 0.00 0.00 0.00 0.00 0.00 0.00 0.00 0.00
0.00 0.00 0.00 0.00 0.00 0.00 0.00 0.00 0.00 0.00 0.00 0.00 0.00 0.00 0.00 0.00 0.00 0.00 0.00 0.00 0.00 0.00 0.00 0.00 0.00 0.00 0.00 0.00 0.00 0.00 0.00 0.00 0.00 0.00 0.00 0.00 0.00 0.00 0.00 0.00 0.00 0.00 0.00 0.00 0.00
0.00 0.00 0.00 0.00 0.00 0.00 0.00 0.00 0.00 0.00 0.00 0.00 0.00 0.00 0.00 0.00 0.00 0.00 0.00 0.00 0.00 0.00 0.00 0.00 0.00 0.00 0.00 0.00 0.00 0.00 0.00 0.00 0.00 0.00 0.00 0.00 0.00 0.00 0.00 0.00 0.00 0.00 0.00 0.00 0.00
0.00 0.00 0.00 0.00 0.00 0.00 0.00 0.00 0.00 0.00 0.00 0.00 0.00 0.00 0.00 0.00 0.00 0.00 0.00 0.00 0.00 0.00 0.00 0.00 0.00 0.00 0.00 0.00 0.00 0.00 0.00 0.00 0.00 0.00 0.00 0.00 0.00 0.00 0.00 0.00 0.00 0.00 0.00 0.00 0.00
0.00 0.00 0.00 0.00 0.00 0.00 0.00 0.00 0.00 0.00 0.00 0.00 0.00 0.00 0.00 0.00 0.00 0.00 0.00 0.00 0.00 0.00 0.00 0.00 0.00 0.00 0.00 0.00 0.00 0.00 0.00 0.00 0.00 0.00 0.00 0.00 0.00 0.00 0.00 0.00 0.00 0.00 0.00 0.00 0.00
0.00 0.00 0.00 0.00 0.00 0.00 0.00 0.00 0.00 0.00 0.00 0.00 0.00 0.00 0.00 0.00 0.00 0.00 0.00 0.00 0.00 0.00 0.00 0.00 0.00 0.00 0.00 0.00 0.00 0.00 0.00 0.00 0.00 0.00 0.00 0.00 0.00 0.00 0.00 0.00 0.00 0.00 0.00 0.00 0.00
0.00 0.00 0.00 0.00 0.00 0.00 0.00 0.00 0.00 0.00 0.00 0.00 0.00 0.00 0.00 0.00 0.00 0.00 0.00 0.00 0.00 0.00 0.00 0.00 0.00 0.00 0.00 0.00 0.00 0.00 0.00 0.00 0.00 0.00 0.00 0.00 0.00 0.00 0.00 0.00 0.00 0.00 0.00 0.00 0.00
0.00 0.00 0.00 0.00 0.00 0.00 0.00 0.00 0.00 0.00 0.00 0.00 0.00 0.00 0.00 0.00 0.00 0.00 0.00 0.00 0.00 0.00 0.00 0.00 0.00 0.00 0.00 0.00 0.00 0.00 0.00 0.00 0.00 0.00 0.00 0.00 0.00 0.00 0.00 0.00 0.00 0.00 0.00 0.00 0.00
0.00 0.00 0.00 0.00 0.00 0.00 0.00 0.00 0.00 0.00 0.00 0.00 0.00 0.00 0.00 0.00 0.00 0.00 0.00 0.00 0.00 0.00 0.00 0.00 0.00 0.00 0.00 0.00 0.00 0.00 0.00 0.00 0.00 0.00 0.00 0.00 0.00 0.00 0.00 0.00 0.00 0.00 0.00 0.00 0.00
0.00 0.00 0.00 0.00 0.00 0.00 0.00 0.00 0.00 0.00 0.00 0.00 0.00 0.00 0.00 0.00 0.00 0.00 0.00 0.00 0.00 0.00 0.00 0.00 0.00 0.00 0.00 0.00 0.00 0.00 0.00 0.00 0.00 0.00 0.00 0.00 0.00 0.00 0.00 0.00 0.00 0.00 0.00 0.00 0.00
0.00 0.00 0.00 0.00 0.00 0.00 0.00 0.00 0.00 0.00 0.00 0.00 0.00 0.00 0.00 0.00 0.00 0.00 0.00 0.00 0.00 0.00 0.00 0.00 0.00 0.00 0.00 0.00 0.00 0.00 0.00 0.00 0.00 0.00 0.00 0.00 0.00 0.00 0.00 0.00 0.00 0.00 0.00 0.00 0.00
0.00 0.00 0.00 0.00 0.00 0.00 0.00 0.00 0.00 0.00 0.00 0.00 0.00 0.00 0.00 0.00 0.00 0.00 0.00 0.00 0.00 0.00 0.00 0.00 0.00 0.00 0.00 0.00 0.00 0.00 0.00 0.00 0.00 0.00 0.00 0.00 0.00 0.00 0.00 0.00 0.00 0.00 0.00 0.00 0.00
0.00 0.00 0.00 0.00 0.00 0.00 0.00 0.00 0.00 0.00 0.00 0.00 0.00 0.00 0.00 0.00 0.00 0.00 0.00 0.00 0.00 0.00 0.00 0.00 0.00 0.00 0.00 0.00 0.00 0.00 0.00 0.00 0.00 0.00 0.00 0.00 0.00 0.00 0.00 0.00 0.00 0.00 0.00 0.00 0.00
0.00 0.00 0.00 0.00 0.00 0.00 0.00 0.00 0.00 0.00 0.00 0.00 0.00 0.00 0.00 0.00 0.00 0.00 0.00 0.00 0.00 0.00 0.00 0.00 0.00 0.00 0.00 0.00 0.00 0.00 0.00 0.00 0.00 0.00 0.00 0.00 0.00 0.00 0.00 0.00 0.00 0.00 0.00 0.00 0.00
0.00 0.00 0.00 0.00 0.00 0.00 0.00 0.00 0.00 0.00 0.00 0.00 0.00 0.00 0.00 0.00 0.00 0.00 0.00 0.00 0.00 0.00 0.00 0.00 0.00 0.00 0.00 0.00 0.00 0.00 0.00 0.00 0.00 0.00 0.00 0.00 0.00 0.00 0.00 0.00 0.00 0.00 0.00 0.00 0.00
0.00 0.00 0.00 0.00 0.00 0.00 0.00 0.00 0.00 0.00 0.00 0.00 0.00 0.00 0.00 0.00 0.00 0.00 0.00 0.00 0.00 0.00 0.00 0.00 0.00 0.00 0.00 0.00 0.00 0.00 0.00 0.00 0.00 0.00 0.00 0.00 0.00 0.00 0.00 0.00 0.00 0.00 0.00 0.00 0.00
0.00 0.00 0.00 0.00 0.00 0.00 0.00 0.00 0.00 0.00 0.00 0.00 0.00 0.00 0.00 0.00 0.00 0.00 0.00 0.00 0.00 0.00 0.00 0.00 0.00 0.00 0.00 0.00 0.00 0.00 0.00 0.00 0.00 0.00 0.00 0.00 0.00 0.00 0.00 0.00 0.00 0.00 0.00 0.00 0.00
0.00 0.00 0.00 0.00 0.00 0.00 0.00 0.00 0.00 0.00 0.00 0.00 0.00 0.00 0.00 0.00 0.00 0.00 0.00 0.00 0.00 0.00 0.00 0.00 0.00 0.00 0.00 0.00 0.00 0.00 0.00 0.00 0.00 0.00 0.00 0.00 0.00 0.00 0.00 0.00 0.00 0.00 0.00 0.00 0.00
0.00 0.00 0.00 0.00 0.00 0.00 0.00 0.00 0.00 0.00 0.00 0.00 0.00 0.00 0.00 0.00 0.00 0.00 0.00 0.00 0.00 0.00 0.00 0.00 0.00 0.00 0.00 0.00 0.00 0.00 0.00 0.00 0.00 0.00 0.00 0.00 0.00 0.00 0.00 0.00 0.00 0.00 0.00 0.00 0.00
0.00 0.00 0.00 0.00 0.00 0.00 0.00 0.00 0.00 0.00 0.00 0.00 0.00 0.00 0.00 0.00 0.00 0.00 0.00 0.00 0.00 0.00 0.00 0.00 0.00 0.00 0.00 0.00 0.00 0.00 0.00 0.00 0.00 0.00 0.00 0.00 0.00 0.00 0.00 0.00 0.00 0.00 0.00 0.00 0.00
0.00 0.00 0.00 0.00 0.00 0.00 0.00 0.00 0.00 0.00 0.00 0.00 0.00 0.00 0.00 0.00 0.00 0.00 0.00 0.00 0.00 0.00 0.00 0.00 0.00 0.00 0.00 0.00 0.00 0.00 0.00 0.00 0.00 0.00 0.00 0.00 0.00 0.00 0.00 0.00 0.00 0.00 0.00 0.00 0.00
0.00 0.00 0.00 0.00 0.00 0.00 0.00 0.00 0.00 0.00 0.00 0.00 0.00 0.00 0.00 0.00 0.00 0.00 0.00 0.00 0.00 0.00 0.00 0.00 0.00 0.00 0.00 0.00 0.00 0.00 0.00 0.00 0.00 0.00 0.00 0.00 0.00 0.00 0.00 0.00 0.00 0.00 0.00 0.00 0.00
0.00 0.00 0.00 0.00 0.00 0.00 0.00 0.00 0.00 0.00 0.00 0.00 0.00 0.00 0.00 0.00 0.00 0.00 0.00 0.00 0.00 0.00 0.00 0.00 0.00 0.00 0.00 0.00 0.00 0.00 0.00 0.00 0.00 0.00 0.00 0.00 0.00 0.00 0.00 0.00 0.00 0.00 0.00 0.00 0.00
0.00 0.00 0.00 0.00 0.00 0.00 0.00 0.00 0.00 0.00 0.00 0.00 0.00 0.00 0.00 0.00 0.00 0.00 0.00 0.00 0.00 0.00 0.00 0.00 0.00 0.00 0.00 0.00 0.00 0.00 0.00 0.00 0.00 0.00 0.00 0.00 0.00 0.00 0.00 0.00 0.00 0.00 0.00 0.00 0.00
0.00 0.00 0.00 0.00 0.00 0.00 0.00 0.00 0.00 0.00 0.00 0.00 0.00 0.00 0.00 0.00 0.00 0.00 0.00 0.00 0.00 0.00 0.00 0.00 0.00 0.00 0.00 0.00 0.00 0.00 0.00 0.00 0.00 0.00 0.00 0.00 0.00 0.00 0.00 0.00 0.00 0.00 0.00 0.00 0.00
MSLP
1021.49 1021.65 1021.36 1020.93 1020.56 1020.19 1019.60 1019.16 1018.65 1018.15 1017.78 1017.30 1016.96 1016.54 1016.12 1015.76 1015.14 1014.68 1013.36 1012.21 1012.09 1011.86 1011.99 1011.74 1011.59 1011.66 1011.69 1011.67 1011.81 1011.77 1010.99 1010.16 1010.11 1009.73 1008.79 1008.50 1008.06 1007.33 1006.81 1006.56 1006.69 1006.91 1007.43 1007.92 1008.92
1021.67 1021.78 1021.37 1020.83 1020.43 1019.99 1019.40 1018.92 1018.45 1017.99 1017.55 1017.11 1016.78 1016.35 1016.01 1015.60 1014.98 1013.49 1011.91 1012.00 1011.90 1011.97 1011.76 1011.52 1011.48 1011.47 1011.45 1011.62 1011.70 1011.35 1010.96 1010.27 1010.13 1009.67 1008.93 1008.48 1008.43 1007.48 1006.88 1006.36 1006.14 1006.67 1007.60 1008.41 1009.05
1021.76 1021.87 1021.26 1020.67 1020.27 1019.72 1019.20 1018.70 1018.28 1017.74 1017.25 1016.92 1016.66 1016.22 1015.85 1015.46 1014.31 1012.43 1011.74 1011.73 1011.90 1012.00 1011.79 1011.63 1011.58 1011.44 1011.37 1011.57 1011.60 1011.47 1010.67 1010.37 1009.64 1009.48 1009.11 1008.59 1007.96 1007.59 1006.77 1005.94 1005.64 1005.74 1006.52 1008.10 1008.72
1021.89 1021.66 1021.08 1020.43 1020.03 1019.47 1018.94 1018.46 1018.04 1017.51 1017.09 1016.77 1016.48 1016.06 1015.55 1015.07 1013.70 1012.18 1011.95 1011.85 1011.94 1011.84 1011.69 1011.62 1011.49 1011.29 1011.34 1011.27 1011.51 1011.18 1010.67 1010.35 1009.46 1009.16 1008.92 1008.33 1007.84 1007.08 1006.34 1005.30 1005.26 1005.59 1006.32 1007.38 1008.02
1021.92 1021.50 1020.89 1020.25 1019.83 1019.22 1018.61 1018.03 1017.60 1017.11 1016.73 1016.51 1016.19 1015.83 1015.33 1014.32 1012.62 1012.04 1012.05 1012.03 1011.92 1011.82 1011.57 1011.45 1011.28 1011.26 1011.12 1011.31 1011.43 1011.16 1010.41 1010.02 1009.30 1009.09 1008.84 1008.53 1007.52 1007.12 1005.85 1005.60 1005.39 1005.72 1006.12 1006.72 1007.44
1021.76 1021.31 1020.59 1020.17 1019.55 1018.94 1018.22 1017.63 1017.15 1016.61 1016.29 1016.12 1015.91 1015.72 1014.94 1013.43 1011.87 1011.88 1011.94 1012.00 1011.78 1011.62 1011.67 1011.49 1011.28 1011.29 1011.22 1011.33 1011.24 1010.87 1010.33 1009.57 1009.03 1008.69 1008.37 1007.95 1007.14 1007.10 1005.47 1005.52 1005.23 1005.61 1005.45 1006.08 1006.72
1021.29 1021.18 1020.63 1019.97 1019.18 1018.42 1017.66 1017.10 1016.63 1016.01 1015.67 1015.62 1015.67 1015.28 1014.47 1012.49 1011.72 1011.97 1011.92 1011.71 1011.66 1011.53 1011.39 1011.49 1011.41 1011.33 1011.32 1011.18 1011.29 1010.87 1010.05 1008.99 1008.75 1008.36 1007.90 1007.94 1006.97 1006.48 1005.66 1005.48 1005.15 1005.21 1005.47 1005.93 1006.32
1021.59 1021.34 1020.30 1019.68 1018.76 1017.89 1017.17 1016.69 1016.14 1015.62 1015.41 1015.46 1015.50 1014.98 1013.27 1011.78 1011.72 1011.71 1011.73 1011.59 1011.52 1011.62 1011.57 1011.45 1011.46 1011.38 1011.39 1011.45 1011.16 1010.62 1010.13 1008.78 1008.40 1008.25 1007.90 1007.74 1006.50 1005.90 1006.09 1005.71 1005.31 1005.38 1005.71 1005.99 1006.02
1021.62 1021.00 1020.27 1019.27 1018.53 1017.37 1016.76 1016.30 1015.73 1015.50 1015.34 1015.54 1015.29 1014.38 1012.36 1011.55 1011.55 1011.31 1011.33 1011.12 1011.14 1011.41 1011.48 1011.52 1011.46 1011.68 1011.65 1011.16 1010.78 1010.57 1009.85 1009.44 1008.64 1008.49 1008.20 1007.57 1006.45 1005.65 1005.94 1005.72 1005.59 1005.54 1005.55 1005.62 1005.76
1021.38 1020.91 1020.10 1019.27 1018.33 1017.02 1016.35 1016.01 1015.61 1015.51 1015.31 1015.30 1014.80 1014.31 1012.16 1011.95 1011.52 1011.18 1011.21 1011.09 1010.94 1011.23 1011.35 1011.46 1011.64 1011.57 1011.55 1010.98 1010.75 1010.65 1010.17 1009.64 1009.22 1008.51 1007.98 1007.32 1006.53 1006.12 1006.19 1005.95 1005.70 1005.60 1005.59 1005.48 1005.26
1021.64 1020.87 1019.92 1019.14 1018.06 1017.07 1016.17 1015.61 1016.07 1015.72 1015.11 1015.01 1014.67 1013.81 1012.72 1011.99 1011.57 1010.96 1010.92 1010.92 1011.04 1011.26 1011.49 1011.89 1011.48 1011.33 1011.39 1011.35 1011.23 1010.96 1010.55 1010.01 1009.06 1008.81 1008.32 1007.36 1006.90 1006.20 1006.22 1005.93 1005.81 1005.68 1005.63 1005.49 1005.01
1021.48 1020.70 1019.92 1019.11 1018.13 1017.23 1016.70 1017.05 1018.42 1018.60 1016.56 1014.61 1014.17 1013.66 1012.86 1012.50 1011.76 1010.96 1010.79 1010.95 1011.13 1011.45 1011.77 1011.81 1011.40 1011.51 1011.43 1011.27 1011.19 1010.91 1010.35 1009.65 1009.16 1008.96 1008.61 1007.62 1006.76 1006.56 1006.25 1006.32 1006.32 1006.02 1005.69 1005.54 1005.09
1021.45 1020.86 1020.01 1018.95 1017.96 1017.73 1018.28 1018.34 1018.43 1018.30 1017.03 1014.32 1013.37 1012.90 1012.52 1012.35 1011.64 1011.04 1010.84 1011.05 1011.25 1011.50 1011.63 1011.51 1011.41 1011.47 1011.20 1010.76 1010.67 1010.50 1010.10 1009.68 1009.45 1008.98 1008.83 1008.06 1007.02 1006.80 1006.34 1006.20 1005.90 1005.73 1005.81 1005.50 1005.21
1021.33 1021.09 1020.23 1019.11 1018.26 1019.24 1018.33 1018.41 1018.21 1018.04 1016.21 1013.81 1012.75 1012.24 1012.33 1012.00 1011.47 1011.10 1010.96 1011.02 1011.32 1011.53 1011.75 1011.63 1011.41 1011.24 1010.87 1010.42 1010.23 1009.91 1009.86 1009.85 1009.68 1009.39 1008.93 1009.06 1007.68 1007.13 1006.83 1006.10 1005.83 1006.06 1005.89 1005.82 1005.50
1021.49 1021.22 1020.67 1020.31 1019.99 1019.16 1018.21 1018.07 1017.73 1017.65 1015.11 1013.16 1012.10 1011.70 1011.84 1011.67 1011.32 1011.12 1011.03 1010.88 1011.27 1011.52 1011.78 1011.50 1011.17 1010.86 1010.35 1010.03 1010.06 1009.75 1009.86 1009.98 1009.99 1009.75 1009.62 1009.26 1008.45 1007.58 1007.26 1006.82 1006.87 1006.57 1006.46 1006.49 1006.09
1021.28 1021.18 1020.99 1020.49 1020.20 1018.78 1018.28 1017.79 1017.21 1016.38 1014.17 1012.55 1011.84 1011.64 1011.55 1011.47 1011.27 1011.30 1011.13 1011.10 1011.62 1011.55 1011.65 1011.41 1011.33 1010.96 1010.22 1010.01 1009.98 1009.98 1009.98 1010.12 1010.37 1010.01 1009.62 1010.06 1009.45 1008.27 1008.51 1008.67 1007.83 1007.76 1007.32 1007.15 1006.54
1021.12 1021.04 1021.00 1020.55 1019.36 1018.76 1018.03 1017.25 1016.50 1014.81 1013.79 1012.95 1012.18 1011.72 1011.72 1011.83 1011.66 1011.57 1011.64 1011.81 1011.97 1011.83 1011.73 1011.39 1011.01 1010.63 1010.47 1009.97 1010.03 1009.92 1009.90 1009.91 1009.99 1009.96 1010.12 1010.53 1009.93 1009.86 1009.73 1009.48 1009.37 1008.92 1008.73 1008.35 1007.77
1020.92 1020.59 1020.13 1019.54 1019.15 1018.93 1018.06 1017.05 1015.68 1014.75 1013.74 1013.11 1012.61 1012.33 1012.32 1012.54 1012.57 1012.36 1012.40 1012.65 1012.83 1012.69 1012.37 1011.87 1011.18 1010.85 1010.48 1010.42 1010.30 1010.46 1010.55 1010.70 1010.83 1010.87 1010.64 1010.66 1010.03 1011.01 1010.70 1010.35 1010.19 1009.90 1009.42 1008.67 1008.30
1020.78 1020.03 1019.77 1018.98 1019.04 1019.10 1018.05 1016.67 1015.53 1014.70 1014.05 1013.40 1012.97 1012.87 1013.06 1013.16 1013.05 1013.07 1013.44 1013.63 1013.57 1013.33 1013.07 1012.55 1011.93 1011.37 1011.00 1010.84 1010.94 1011.05 1011.39 1012.16 1011.93 1012.38 1011.67 1010.80 1010.59 1011.16 1010.92 1010.61 1010.43 1010.47 1010.23 1009.82 1009.43
1021.22 1020.26 1019.23 1018.94 1019.00 1018.66 1017.63 1016.70 1015.72 1014.89 1014.15 1013.68 1013.50 1013.76 1013.66 1013.77 1013.60 1013.63 1014.04 1014.45 1014.21 1014.01 1013.71 1013.29 1012.61 1011.83 1011.48 1011.29 1011.34 1011.26 1012.42 1012.48 1012.29 1012.13 1011.79 1011.35 1011.43 1011.95 1012.26 1012.51 1012.30 1011.73 1011.50 1011.15 1010.40
1021.21 1019.94 1019.15 1019.03 1019.06 1018.41 1017.42 1016.67 1015.79 1014.78 1014.33 1013.90 1013.94 1014.14 1014.53 1014.59 1014.54 1014.63 1015.10 1015.12 1015.07 1014.47 1014.28 1014.04 1013.64 1012.70 1012.25 1012.35 1012.35 1012.36 1012.54 1013.22 1013.44 1013.32 1012.64 1012.26 1012.34 1014.06 1014.36 1014.39 1013.97 1013.59 1013.10 1012.38 1011.62
1021.02 1020.03 1019.35 1019.22 1019.12 1018.89 1017.61 1016.78 1016.03 1014.91 1014.32 1014.16 1014.36 1014.60 1014.95 1015.26 1015.27 1015.36 1015.53 1015.78 1015.76 1015.38 1014.99 1015.13 1014.51 1013.54 1013.50 1013.71 1013.72 1013.49 1013.74 1013.94 1013.68 1013.83 1013.96 1013.96 1014.04 1015.18 1015.42 1015.36 1014.99 1014.44 1014.05 1013.41 1012.77
1020.69 1020.22 1019.46 1019.25 1018.85 1018.44 1017.70 1016.66 1015.93 1015.13 1014.75 1014.52 1014.83 1015.07 1015.47 1015.93 1016.23 1016.17 1016.18 1016.36 1016.18 1015.96 1016.28 1015.87 1015.39 1014.65 1014.29 1014.27 1014.15 1014.13 1014.41 1014.68 1014.83 1014.73 1014.06 1014.02 1014.15 1015.57 1015.96 1015.82 1015.65 1015.19 1014.66 1014.01 1013.46
1021.00 1020.43 1019.86 1019.42 1019.34 1018.28 1017.53 1016.67 1015.92 1015.39 1015.13 1015.04 1015.40 1015.55 1015.94 1016.41 1016.59 1016.66 1016.67 1016.74 1016.70 1016.78 1017.00 1016.59 1016.32 1015.82 1015.28 1015.01 1015.14 1014.72 1014.68 1015.01 1015.09 1014.86 1014.37 1014.26 1014.38 1014.98 1015.88 1016.06 1016.07 1015.70 1015.22 1014.54 1013.83
1021.08 1020.43 1020.00 1019.35 1018.90 1018.27 1017.63 1016.93 1016.03 1015.66 1015.51 1015.47 1015.84 1015.96 1016.19 1016.71 1016.94 1017.03 1017.15 1017.11 1017.13 1017.16 1017.11 1017.05 1016.78 1016.65 1016.02 1015.86 1015.62 1015.18 1014.87 1015.03 1015.11 1014.98 1014.98 1014.49 1014.98 1015.58 1016.15 1016.38 1016.44 1016.25 1015.76 1015.06 1014.40
1021.15 1020.38 1020.11 1019.30 1018.79 1018.20 1017.76 1016.91 1016.27 1016.26 1016.07 1016.05 1016.10 1016.66 1016.71 1016.86 1017.11 1017.23 1017.44 1017.58 1017.57 1017.51 1017.65 1017.93 1017.58 1017.21 1016.31 1016.05 1016.12 1015.61 1015.20 1015.24 1015.15 1015.29 1015.34 1015.26 1015.11 1015.86 1016.39 1016.66 1016.40 1016.12 1015.82 1015.41 1015.02
1021.21 1020.71 1019.58 1019.53 1018.87 1018.18 1017.54 1017.00 1016.57 1016.34 1016.92 1016.62 1016.60 1016.98 1017.34 1017.56 1017.62 1017.76 1017.88 1018.09 1018.27 1018.34 1018.33 1018.41 1018.12 1017.85 1016.95 1016.92 1016.41 1015.61 1015.47 1015.49 1015.71 1015.81 1015.70 1015.38 1015.50 1016.03 1016.38 1016.51 1016.43 1016.27 1016.09 1015.74 1015.30
Thickness
5721 5721 5725 5729 5734 5739 5745 5748 5753 5757 5760 5764 5766 5769 5773 5776 5781 5785 5790 5801 5802 5803 5800 5799 5796 5791 5790 5780 5779 5775 5759 5754 5756 5759 5775 5793 5788 5810 5823 5816 5818 5821 5815 5816 5812
5717 5718 5723 5728 5733 5739 5745 5748 5753 5757 5761 5764 5766 5770 5772 5775 5780 5786 5803 5802 5802 5802 5798 5792 5786 5787 5778 5774 5772 5767 5754 5758 5770 5776 5779 5790 5786 5799 5805 5810 5814 5815 5815 5812 5808
5714 5715 5721 5727 5732 5739 5745 5748 5753 5757 5761 5764 5766 5770 5772 5774 5782 5791 5802 5803 5801 5800 5799 5796 5791 5784 5773 5772 5767 5760 5757 5767 5777 5781 5786 5785 5790 5799 5801 5802 5817 5819 5821 5809 5806
5710 5713 5720 5727 5733 5739 5745 5748 5753 5758 5761 5764 5766 5769 5772 5776 5765 5794 5799 5800 5799 5799 5797 5790 5785 5776 5767 5763 5766 5758 5768 5770 5781 5786 5785 5785 5795 5797 5806 5819 5832 5830 5825 5815 5808
5707 5712 5720 5727 5732 5739 5745 5749 5754 5759 5762 5764 5767 5769 5774 5774 5780 5796 5796 5796 5796 5796 5790 5785 5779 5774 5766 5766 5764 5758 5769 5773 5784 5784 5783 5787 5792 5794 5810 5822 5832 5828 5824 5818 5813
5705 5712 5719 5725 5733 5739 5744 5750 5755 5760 5763 5765 5767 5767 5772 5766 5796 5795 5795 5794 5794 5792 5786 5785 5780 5781 5771 5766 5762 5768 5769 5775 5780 5782 5785 5786 5797 5794 5818 5823 5823 5822 5825 5823 5818
5706 5709 5716 5724 5733 5740 5746 5752 5757 5762 5765 5766 5766 5768 5768 5778 5795 5793 5793 5793 5794 5791 5784 5786 5785 5777 5774 5766 5769 5765 5763 5778 5779 5785 5786 5786 5787 5790 5813 5815 5817 5818 5820 5820 5820
5700 5705 5716 5723 5732 5740 5747 5752 5757 5762 5764 5765 5765 5768 5768 5793 5794 5793 5793 5790 5793 5791 5787 5788 5785 5776 5770 5770 5765 5759 5761 5761 5781 5782 5788 5786 5776 5800 5806 5805 5810 5812 5813 5814 5819
5695 5704 5712 5722 5731 5740 5747 5753 5758 5760 5762 5762 5765 5768 5770 5793 5787 5793 5793 5787 5790 5787 5786 5785 5779 5764 5765 5757 5754 5756 5747 5747 5762 5778 5776 5780 5779 5802 5804 5803 5804 5808 5812 5815 5818
5694 5701 5710 5719 5728 5739 5747 5752 5756 5757 5759 5760 5764 5762 5779 5770 5783 5788 5791 5789 5782 5778 5773 5770 5763 5757 5753 5756 5732 5738 5742 5749 5744 5770 5776 5777 5781 5792 5795 5798 5802 5805 5809 5812 5816
5687 5697 5708 5716 5726 5735 5745 5752 5751 5754 5756 5753 5755 5757 5765 5777 5785 5783 5787 5781 5777 5768 5751 5754 5750 5742 5747 5747 5747 5744 5739 5737 5756 5764 5763 5772 5772 5787 5791 5796 5795 5799 5804 5807 5813
5684 5693 5703 5712 5721 5730 5737 5734 5723 5725 5735 5752 5753 5755 5763 5769 5761 5775 5785 5766 5760 5745 5749 5748 5740 5748 5749 5746 5741 5739 5739 5746 5757 5759 5759 5767 5771 5777 5785 5786 5786 5791 5798 5802 5809
5678 5687 5697 5708 5717 5721 5719 5721 5721 5724 5727 5747 5756 5756 5761 5764 5758 5763 5774 5763 5751 5742 5742 5738 5746 5749 5746 5749 5741 5740 5741 5744 5744 5756 5756 5757 5763 5765 5782 5787 5794 5797 5796 5801 5805
5674 5679 5690 5702 5710 5702 5716 5716 5720 5722 5727 5743 5751 5757 5758 5760 5754 5770 5773 5764 5750 5740 5739 5740 5749 5744 5745 5744 5749 5741 5750 5745 5743 5741 5732 5743 5731 5759 5767 5779 5789 5788 5793 5797 5803
5668 5673 5681 5687 5691 5702 5711 5715 5719 5721 5705 5744 5747 5766 5758 5753 5758 5759 5773 5765 5744 5743 5743 5739 5743 5744 5744 5750 5751 5748 5751 5744 5739 5736 5733 5736 5736 5753 5766 5765 5770 5782 5787 5792 5799
5665 5669 5674 5681 5686 5701 5707 5714 5719 5712 5697 5732 5744 5743 5746 5751 5753 5757 5759 5766 5757 5745 5742 5744 5750 5749 5754 5755 5753 5753 5748 5740 5731 5734 5721 5718 5725 5740 5741 5744 5764 5773 5780 5784 5793
5661 5665 5670 5676 5695 5697 5705 5713 5705 5704 5727 5720 5728 5741 5739 5734 5742 5746 5742 5738 5733 5725 5723 5738 5744 5752 5754 5749 5752 5750 5743 5720 5715 5714 5709 5717 5721 5724 5738 5747 5751 5758 5765 5773 5782
5659 5666 5674 5681 5688 5692 5702 5704 5694 5707 5712 5727 5727 5731 5725 5729 5729 5734 5731 5726 5733 5729 5722 5719 5719 5741 5751 5744 5740 5734 5736 5719 5691 5699 5712 5720 5717 5713 5736 5747 5750 5755 5762 5771 5774
5657 5667 5674 5681 5686 5688 5699 5690 5698 5703 5713 5716 5723 5718 5718 5722 5726 5727 5720 5718 5725 5728 5717 5715 5718 5742 5744 5746 5741 5731 5724 5721 5705 5694 5701 5718 5727 5726 5738 5740 5744 5745 5750 5754 5759
5649 5661 5675 5678 5681 5687 5690 5681 5695 5707 5714 5716 5706 5709 5707 5710 5717 5720 5713 5718 5717 5724 5725 5718 5710 5731 5736 5742 5741 5736 5725 5715 5713 5692 5687 5712 5708 5704 5714 5714 5722 5729 5732 5738 5746
5646 5666 5671 5673 5676 5682 5680 5683 5691 5709 5712 5711 5705 5703 5701 5701 5706 5705 5700 5711 5713 5719 5723 5717 5711 5718 5727 5717 5714 5721 5715 5701 5701 5694 5691 5690 5705 5699 5696 5699 5704 5710 5717 5722 5729
5642 5659 5663 5666 5669 5655 5673 5678 5688 5702 5711 5709 5707 5704 5699 5697 5698 5698 5697 5700 5708 5711 5709 5706 5705 5703 5702 5709 5710 5710 5699 5696 5692 5684 5681 5679 5692 5691 5688 5692 5696 5701 5704 5710 5715
5643 5648 5656 5661 5662 5662 5665 5678 5686 5694 5697 5702 5698 5701 5698 5688 5686 5690 5692 5700 5703 5703 5694 5701 5694 5690 5691 5701 5704 5696 5696 5689 5681 5675 5679 5675 5687 5683 5683 5684 5685 5686 5691 5697 5701
5634 5644 5649 5651 5649 5659 5663 5673 5680 5691 5693 5696 5692 5695 5689 5681 5683 5682 5686 5691 5694 5692 5686 5692 5682 5682 5675 5682 5684 5684 5691 5683 5676 5667 5670 5675 5675 5680 5669 5670 5672 5674 5679 5683 5689
5624 5638 5640 5646 5652 5654 5659 5666 5675 5678 5688 5691 5684 5685 5683 5673 5675 5674 5678 5683 5686 5684 5687 5684 5675 5674 5680 5678 5677 5680 5683 5677 5667 5671 5654 5670 5661 5663 5659 5658 5658 5661 5665 5669 5672
5624 5635 5633 5641 5643 5651 5651 5662 5670 5671 5679 5678 5678 5675 5680 5675 5676 5670 5672 5672 5672 5681 5676 5669 5666 5665 5673 5676 5666 5663 5672 5668 5666 5660 5654 5655 5656 5656 5653 5651 5652 5654 5655 5655 5656
5605 5616 5636 5624 5636 5647 5653 5660 5667 5674 5669 5676 5677 5673 5670 5670 5674 5674 5674 5670 5669 5665 5662 5659 5657 5652 5653 5654 5657 5657 5661 5657 5652 5651 5651 5645 5652 5649 5641 5639 5639 5640 5641 5642 5645